TimeMDT,TemperatureF,Dew PointF,Humidity,Sea Level PressureIn,VisibilityMPH,Wind Direction,Wind SpeedMPH,Gust SpeedMPH,PrecipitationIn,Events,Conditions,WindDirDegrees,DateUTC
12:15 AM,44.6,21.2,39,30.41,10.0,North,3.5,-,N/A,,Clear,360,2012-09-20 06:15:00
12:35 AM,42.8,24.8,49,30.41,10.0,Calm,Calm,-,N/A,,Clear,0,2012-09-20 06:35:00
12:55 AM,39.2,24.8,56,30.41,10.0,Calm,Calm,-,N/A,,Clear,0,2012-09-20 06:55:00
1:15 AM,41.0,26.6,57,30.42,10.0,Calm,Calm,-,N/A,,Clear,0,2012-09-20 07:15:00
1:35 AM,39.2,26.6,61,30.42,10.0,Calm,Calm,-,N/A,,Clear,0,2012-09-20 07:35:00
1:55 AM,39.2,26.6,61,30.42,10.0,Calm,Calm,-,N/A,,Clear,0,2012-09-20 07:55:00
2:15 AM,37.4,26.6,65,30.42,10.0,Calm,Calm,-,N/A,,Clear,0,2012-09-20 08:15:00
2:35 AM,37.4,24.8,60,30.43,10.0,Calm,Calm,-,N/A,,Clear,0,2012-09-20 08:35:00
2:55 AM,37.4,24.8,60,30.42,10.0,Calm,Calm,-,N/A,,Clear,0,2012-09-20 08:55:00
3:15 AM,37.4,23.0,56,30.42,10.0,Calm,Calm,-,N/A,,Clear,0,2012-09-20 09:15:00
3:35 AM,35.6,23.0,60,30.42,10.0,Calm,Calm,-,N/A,,Clear,0,2012-09-20 09:35:00
4:15 AM,35.6,23.0,60,30.42,10.0,Calm,Calm,-,N/A,,Clear,0,2012-09-20 10:15:00
4:35 AM,33.8,21.2,60,30.42,10.0,Calm,Calm,-,N/A,,Clear,0,2012-09-20 10:35:00
4:55 AM,33.8,24.8,70,30.42,10.0,Calm,Calm,-,N/A,,Clear,0,2012-09-20 10:55:00
5:15 AM,33.8,21.2,60,30.43,10.0,North,3.5,-,N/A,,Clear,350,2012-09-20 11:15:00
5:35 AM,33.8,19.4,56,30.43,10.0,Calm,Calm,-,N/A,,Clear,0,2012-09-20 11:35:00
5:55 AM,32.0,21.2,64,30.43,10.0,Calm,Calm,-,N/A,,Clear,0,2012-09-20 11:55:00
6:15 AM,30.2,21.2,69,30.44,10.0,Calm,Calm,-,N/A,,Clear,0,2012-09-20 12:15:00
6:35 AM,30.2,21.2,69,30.44,10.0,Calm,Calm,-,N/A,,Clear,0,2012-09-20 12:35:00
7:15 AM,30.2,21.2,69,30.45,10.0,Calm,Calm,-,N/A,,Clear,0,2012-09-20 13:15:00
7:35 AM,30.2,21.2,69,30.45,10.0,Calm,Calm,-,N/A,,Clear,0,2012-09-20 13:35:00
7:55 AM,33.8,21.2,60,30.45,10.0,Calm,Calm,-,N/A,,Clear,0,2012-09-20 13:55:00
8:15 AM,33.8,24.8,70,30.45,10.0,NNE,3.5,-,N/A,,Clear,20,2012-09-20 14:15:00
8:35 AM,37.4,24.8,60,30.45,10.0,Calm,Calm,-,N/A,,Clear,0,2012-09-20 14:35:00
8:55 AM,39.2,24.8,56,30.45,10.0,Calm,Calm,-,N/A,,Clear,0,2012-09-20 14:55:00
9:15 AM,42.8,24.8,49,30.45,10.0,Calm,Calm,-,N/A,,Clear,0,2012-09-20 15:15:00
9:55 AM,46.4,24.8,43,30.45,10.0,Calm,Calm,-,N/A,,Clear,0,2012-09-20 15:55:00
10:15 AM,48.2,23.0,37,30.45,10.0,Calm,Calm,-,N/A,,Clear,0,2012-09-20 16:15:00
10:35 AM,50.0,21.2,32,30.45,10.0,Calm,Calm,-,N/A,,Clear,0,2012-09-20 16:35:00
10:55 AM,53.6,24.8,33,30.44,10.0,Calm,Calm,-,N/A,,Clear,0,2012-09-20 16:55:00
11:15 AM,55.4,23.0,29,30.43,10.0,Calm,Calm,-,N/A,,Clear,0,2012-09-20 17:15:00
11:35 AM,57.2,23.0,27,30.42,10.0,Calm,Calm,-,N/A,,Clear,0,2012-09-20 17:35:00
11:55 AM,59.0,21.2,23,30.41,10.0,Calm,Calm,-,N/A,,Clear,0,2012-09-20 17:55:00
12:15 PM,62.6,24.8,24,30.40,10.0,WSW,3.5,-,N/A,,Clear,250,2012-09-20 18:15:00
12:35 PM,64.4,24.8,22,30.39,10.0,WSW,8.1,-,N/A,,Clear,250,2012-09-20 18:35:00
12:55 PM,66.2,23.0,19,30.38,10.0,WSW,8.1,-,N/A,,Clear,250,2012-09-20 18:55:00
1:15 PM,69.8,21.2,16,30.37,10.0,SW,6.9,-,N/A,,Clear,230,2012-09-20 19:15:00
1:35 PM,69.8,21.2,16,30.36,10.0,SW,12.7,-,N/A,,Clear,230,2012-09-20 19:35:00
1:55 PM,71.6,21.2,15,30.35,10.0,SSW,10.4,-,N/A,,Clear,210,2012-09-20 19:55:00
2:15 PM,71.6,21.2,15,30.34,10.0,South,6.9,-,N/A,,Clear,190,2012-09-20 20:15:00
2:35 PM,71.6,21.2,15,30.34,10.0,SW,5.8,-,N/A,,Clear,230,2012-09-20 20:35:00
2:55 PM,71.6,19.4,14,30.33,10.0,WSW,9.2,-,N/A,,Clear,250,2012-09-20 20:55:00
3:15 PM,71.6,19.4,14,30.32,10.0,SSW,6.9,-,N/A,,Clear,200,2012-09-20 21:15:00
3:35 PM,71.6,19.4,14,30.32,10.0,WSW,12.7,-,N/A,,Clear,240,2012-09-20 21:35:00
4:55 PM,71.6,19.4,14,30.30,10.0,SW,8.1,-,N/A,,Clear,230,2012-09-20 22:55:00
5:15 PM,71.6,19.4,14,30.30,10.0,SW,9.2,-,N/A,,Clear,220,2012-09-20 23:15:00
5:35 PM,71.6,19.4,14,30.30,10.0,WSW,8.1,-,N/A,,Clear,250,2012-09-20 23:35:00
5:55 PM,71.6,19.4,14,30.30,10.0,WSW,9.2,-,N/A,,Clear,240,2012-09-20 23:55:00
6:15 PM,69.8,19.4,15,30.30,10.0,WSW,8.1,-,N/A,,Clear,240,2012-09-21 00:15:00
6:35 PM,68.0,19.4,16,30.30,10.0,SW,8.1,-,N/A,,Clear,230,2012-09-21 00:35:00
6:55 PM,66.2,19.4,17,30.30,10.0,SW,6.9,-,N/A,,Clear,230,2012-09-21 00:55:00
7:15 PM,64.4,21.2,19,30.30,10.0,WSW,5.8,-,N/A,,Clear,250,2012-09-21 01:15:00
7:35 PM,60.8,21.2,22,30.31,10.0,WSW,3.5,-,N/A,,Clear,250,2012-09-21 01:35:00
7:55 PM,60.8,21.2,22,30.32,10.0,SW,3.5,-,N/A,,Clear,230,2012-09-21 01:55:00
8:15 PM,60.8,21.2,22,30.33,10.0,NW,4.6,-,N/A,,Clear,320,2012-09-21 02:15:00
8:35 PM,57.2,19.4,23,30.34,10.0,NNW,8.1,-,N/A,,Clear,340,2012-09-21 02:35:00
8:55 PM,55.4,21.2,26,30.35,10.0,Calm,Calm,-,N/A,,Clear,0,2012-09-21 02:55:00
9:15 PM,55.4,23.0,29,30.35,10.0,NW,3.5,-,N/A,,Clear,310,2012-09-21 03:15:00
9:35 PM,53.6,24.8,33,30.36,10.0,SSE,3.5,-,N/A,,Clear,160,2012-09-21 03:35:00
9:55 PM,51.8,23.0,33,30.36,10.0,WNW,3.5,-,N/A,,Clear,290,2012-09-21 03:55:00
10:15 PM,48.2,26.6,43,30.36,10.0,SW,4.6,-,N/A,,Clear,230,2012-09-21 04:15:00
10:35 PM,50.0,23.0,35,30.36,10.0,Calm,Calm,-,N/A,,Clear,0,2012-09-21 04:35:00
10:55 PM,48.2,23.0,37,30.37,10.0,Calm,Calm,-,N/A,,Clear,0,2012-09-21 04:55:00
11:55 PM,46.4,21.2,37,30.38,10.0,Calm,Calm,-,N/A,,Clear,0,2012-09-21 05:55:00